Regional Weather Roundup
Issued by NWS Jackson, KY

Home | Current Version | Previous Version | Graphics & Text | Print | Product List | Glossary On
Versions: 1 2 3 4 5 6 7 8 9 10 11 12 13 14 15 16 17 18 19 20 21 22 23 24 25 26 27 28 29 30 31 32 33 34 35 36 37 38 39 40 41 42 43 44 45 46 47 48 49 50
000
ASUS43 KJKL 170610
RWRJKL

EAST KENTUCKY HOURLY WEATHER ROUNDUP
NATIONAL WEATHER SERVICE JACKSON KY
200 AM EDT THU APR 17 2014

NOTE: "FAIR" INDICATES FEW OR NO CLOUDS BELOW 12,000 FEET WITH
NO SIGNIFICANT WEATHER AND/OR OBSTRUCTIONS TO VISIBILITY.

* THESE REPORTS ARE NOT UNDER NWS QUALITY CONTROL AND MAY NOT
  REPORT WEATHER SUCH AS PRECIPITATION AND FOG.

KYZ079-080-083-085-087-088-110-112-115-119-120-170700
...EASTERN KENTUCKY...

CITY           SKY/WX    TMP DP  RH WIND       PRES   REMARKS
JACKSON          N/A     44  19  36 SE3       30.28R
6HR MIN TEMP:  44; 6HR MAX TEMP:  50;

LONDON           N/A     38  30  73 CALM      30.28R
6HR MIN TEMP:  37; 6HR MAX TEMP:  55;

SOMERSET*        N/A     39  28  65 CALM      30.29R
MONTICELLO*      N/A     36  29  76 CALM      30.30R
6HR MIN TEMP:  33; 6HR MAX TEMP:  52;

WILLIAMSBURG*  CLEAR     39  32  75 CALM      30.29R
MIDDLESBORO*     N/A     35  31  86 CALM      30.32R
6HR MIN TEMP:  35; 6HR MAX TEMP:  56;

HARLAN APT*      N/A     46  19  34 E5        30.30R
BLACK MTN*       N/A     36  19  51 S6          N/A  WCI  31
PIKEVILLE APT* CLEAR     46  19  34 SE7       30.30R
BIG SANDY*       N/A     46  24  41 SE7       30.29R
6HR MIN TEMP:  42; 6HR MAX TEMP:  50;

MOREHEAD APT*  CLEAR     43  19  39 E5        30.30R
$$

KYZ035-036-041-042-044-050-067-078-099-170700
...CENTRAL KENTUCKY...

CITY           SKY/WX    TMP DP  RH WIND       PRES   REMARKS
MT STERLING*     N/A     43  23  45 SE6       30.29S
FLEMING/MASON* CLEAR     37  23  56 E6        30.29S WCI  33
DANVILLE*        N/A     36  32  87 CALM      30.27S
LEXINGTON        N/A     43  22  43 SE8       30.26S
6HR MIN TEMP:  43; 6HR MAX TEMP:  51;

FRANKFORT        N/A     40  24  53 E6        30.25S
6HR MIN TEMP:  39; 6HR MAX TEMP:  49;

$$

KYZ091>093-OHZ055-061-077-WVZ005-015-034-035-042-170700
...SOUTHERN OHIO/WEST VIRGINIA...

CITY           SKY/WX    TMP DP  RH WIND       PRES   REMARKS
COVINGTON      MOCLDY    40  23  50 SE7       30.26S
COLUMBUS         N/A     40  19  43 E8        30.32S WCI  34
DAYTON           N/A     40  23  50 E12       30.28F WCI  33
WILMINGTON       N/A     36  24  62 E8        30.28F WCI  30
HUNTINGTON       N/A     39  22  50 E6        30.30R WCI  35
CHARLESTON       N/A     42  25  50 CALM      30.32R
PINEVILLE*       N/A     38  29  69 MISG      30.40R
BECKLEY          N/A     38  19  46 SE15G25   30.34S WCI  29
BLUEFIELD        N/A     39  19  44 SE14G24   30.36R WCI  31
$$

VAZ002-007-008-TNZ017-027-036-066-071-170700
...SOUTHWEST VIRGINIA/EAST TENNESSEE...

CITY           SKY/WX    TMP DP  RH WIND       PRES   REMARKS
WISE*            N/A     41  18  38 S9G16     30.31R
ABINGDON*        N/A     42  21  43 E9        30.34S
BRISTOL          N/A     46  19  34 SE6       30.34R
KNOXVILLE        N/A     42  33  70 CALM      30.29R
OAK RIDGE        N/A     41  33  73 CALM      30.32R
CROSSVILLE       N/A     46  26  45 S5        30.29R
NASHVILLE        N/A     43  36  76 CALM      30.25R
$$

...KEY TO REMARKS...
VSB - VISIBILITY IN MILES
WCI - WIND CHILL INDEX
HX  - HEAT INDEX

$$



USA.gov is the U.S. government's official web portal to all federal, state and local government web resources and services.